Location: Oshawa
(43.9000°N, 78.8670°W)
Time: 19:05:57
(UTC-05:00)

CARTOSAT-1 - Pass Details

Date: 24 August 2017
Orbit: 618 x 619 km, 97.8° (Epoch: 19 November)

Event Time Altitude Azimuth Distance (km) Brightness Sun altitude
Exits shadow 22:23:03 26° 54° (NE) 1,220 4.9 -22.5°
Drops below altitude 10° 22:26:09 10° 10° (N) 1,993 6.6 -22.9°
Sets 22:28:35 0° 359° (N) 2,904 7.7 -23.3°
